Location: Unspecified
(0.0000°N, 0.0000°E)
Time: 22:48:21
(UTC+02:00)

GPS 2-15 Rocket1 - Visible Passes

Search period start: 29 March 2015 00:00
Search period end: 08 April 2015 01:00
Orbit: 626 x 679 km, 19.8° (Epoch: 28 March)

Date Brightness Start Highest point End Pass type
(mag) Time Alt. Az. Time Alt. Az. Time Alt. Az.
29 Mar 6.0 05:34:51 13° ESE 05:34:51 13° ESE 05:35:25 10° ESE visible
29 Mar 4.4 07:12:34 17° WSW 07:15:05 26° SSW 07:19:01 10° SE visible
30 Mar 5.1 06:00:29 22° SE 06:00:29 22° SE 06:02:17 10° SE visible
30 Mar 5.1 07:39:29 10° SW 07:42:21 16° SSW 07:45:09 10° SSE visible
31 Mar 4.7 06:26:04 22° S 06:26:04 22° S 06:28:47 10° SE visible
01 Apr 5.1 06:51:37 14° SSW 06:52:18 14° SSW 06:54:48 10° SSE visible
06 Apr 5.5 21:22:05 10° N 21:23:45 12° NNE 21:24:59 11° NNE visible
07 Apr 5.2 21:47:45 10° NNW 21:50:21 18° N 21:50:21 18° N visible
